This is the latest recevied weather packets stored in our database for station/object KO4DYK. If no packets are shown the sender has not sent any weather packets the latest 1 day(s).
| Time | Temp. | Humidity | Pressure | Rain* | Wind** | Luminosity | Snow |
|---|---|---|---|---|---|---|---|
| 1836274565 | 18.33° C | 88% | 1018.9 hPa | 0 mm | 0 m/s | 0 W/m² | - |
| 1836274419 | 18.33° C | 89% | 1019.1 hPa | 0 mm | 0 m/s | 0 W/m² | - |
| 1836274264 | 18.33° C | 87% | 1019.1 hPa | 0 mm | 0 m/s | 0 W/m² | - |
| 1836274117 | 18.33° C | 89% | 1018.9 hPa | 0 mm | 0 m/s | 0 W/m² | - |
| 1836273963 | 18.89° C | 87% | 1019.2 hPa | 0 mm | 0 m/s | 0 W/m² | - |
| 1778057374 | 12.22° C | 99% | 1013.8 hPa | 11.94 mm | 3.13 m/s, 6° | 0 W/m² | - |
| 1778057071 | 12.22° C | 99% | 1013.5 hPa | 7.11 mm | 0.89 m/s, 40° | 0 W/m² | - |
| 1778056767 | 12.22° C | 99% | 1013.4 hPa | 3.05 mm | 0.89 m/s, 42° | 0 W/m² | - |
| 1778056465 | 12.22° C | 99% | 1013.1 hPa | 4.83 mm | 1.34 m/s, 52° | 0 W/m² | - |
| 1778056162 | 12.78° C | 99% | 1012.9 hPa | 3.05 mm | 1.34 m/s, 42° | 0 W/m² | - |
| 1778055859 | 12.78° C | 99% | 1012.9 hPa | 3.05 mm | 1.79 m/s, 166° | 0 W/m² | - |
| 1778055554 | 12.78° C | 99% | 1012.7 hPa | 4.83 mm | 1.34 m/s, 12° | 0 W/m² | - |
| 1778055253 | 13.33° C | 99% | 1013.4 hPa | 3.56 mm | 1.79 m/s, 5° | 0 W/m² | - |
| 1778054950 | 13.33° C | 99% | 1013.4 hPa | 1.27 mm | 2.68 m/s, 353° | 0 W/m² | - |
| 1778054647 | 13.89° C | 99% | 1013.1 hPa | 1.78 mm | 0.89 m/s, 47° | 0 W/m² | - |
| 1778054345 | 14.44° C | 99% | 1012.7 hPa | 1.78 mm | 2.24 m/s, 9° | 0 W/m² | - |
| 1778054042 | 15.56° C | 99% | 1012 hPa | 0 mm | 1.34 m/s, 30° | 0 W/m² | - |
| 1778053739 | 15.56° C | 99% | 1012.2 hPa | 0 mm | 1.34 m/s, 32° | 0 W/m² | - |
| 1778053436 | 16.11° C | 99% | 1012 hPa | 0 mm | 1.34 m/s, 71° | 0 W/m² | - |
| 1778053133 | 16.67° C | 99% | 1012.1 hPa | 0 mm | 0.45 m/s, 65° | 0 W/m² | - |
| 1778052831 | 17.22° C | 99% | 1012 hPa | 1.27 mm | 0.45 m/s, 161° | 0 W/m² | - |
| 1778052527 | 18.33° C | 99% | 1011.7 hPa | 4.83 mm | 1.79 m/s, 39° | 0 W/m² | - |
| 1778052225 | 18.89° C | 99% | 1011.9 hPa | 11.94 mm | 0.89 m/s, 191° | 0 W/m² | - |
| 1778051923 | 18.89° C | 99% | 1011.4 hPa | 11.94 mm | 0.89 m/s, 119° | 0 W/m² | - |
| 1778051621 | 19.44° C | 99% | 1011.4 hPa | 29.46 mm | 0 m/s | 0 W/m² | - |
* Rain latest hour (hover to see other rain measurements)
** Current wind speed in m/s (hover to see current wind gust speed)